Theta_e
335 333 330 327 328 330 332 332 332 333 331 331 330 326 323 321 322 335 339 339 341 336 336 340 337 340 339 340 350 349 346 346 344 347 351 349 354 360 352 344 346 345 344 345 348 348 350 353 354 355 357 359 359 358 357 357 357 357 355 356 356 354 354 354 353 352 351 350 348 347 346 343 343 341 339 339 339 338 337 336 334 333 333 331 330 330
332 329 329 332 332 332 333 331 332 332 333 332 329 324 322 322 322 333 337 336 338 335 332 338 336 337 338 341 349 349 346 347 345 346 351 350 351 356 354 348 349 349 346 345 347 350 347 351 356 357 358 359 359 358 358 358 357 357 356 356 355 354 354 353 353 352 350 349 348 347 345 343 342 340 339 339 339 337 336 335 332 331 332 330 329 330
327 326 330 334 332 332 332 331 330 332 333 330 328 323 318 322 326 329 333 334 336 331 331 337 332 332 337 341 349 350 346 348 345 344 349 351 350 352 353 351 351 351 350 346 347 349 348 351 356 358 360 359 360 359 358 359 358 357 356 355 354 355 354 353 352 351 349 348 347 346 345 344 341 340 339 338 338 337 336 334 331 328 328 328 328 328
320 326 331 333 332 331 330 329 329 328 329 328 326 319 315 323 323 319 327 333 335 330 332 336 332 333 338 341 348 350 348 349 347 344 343 347 351 352 352 349 348 352 352 349 348 349 350 351 354 356 360 360 360 361 359 358 357 356 357 355 354 355 354 353 352 350 349 347 347 346 344 343 340 339 339 338 337 337 336 334 332 329 327 327 327 327
322 328 332 331 331 333 329 330 331 326 323 326 327 320 317 323 323 320 328 331 331 331 334 333 322 324 335 338 344 352 351 349 347 346 345 345 349 351 351 347 348 352 353 353 352 352 352 352 353 355 359 360 359 360 359 358 358 356 357 356 354 355 354 353 352 349 349 347 346 345 343 341 340 339 338 338 337 336 335 334 331 329 328 327 327 326
326 330 330 330 330 333 331 330 329 325 320 320 325 326 324 326 326 326 329 326 321 319 328 328 312 314 329 333 342 352 352 350 349 349 349 350 349 349 352 351 353 356 354 354 354 352 354 352 352 356 360 360 359 359 358 357 358 356 356 356 354 355 354 352 352 350 348 347 346 345 344 342 341 339 339 339 338 337 335 334 330 327 327 327 326 325
326 327 328 330 329 332 331 328 329 329 319 313 322 328 328 328 327 325 326 321 313 313 326 330 315 311 319 327 339 349 351 356 354 353 351 354 351 346 349 353 356 358 355 354 353 351 355 353 352 357 360 361 360 359 358 358 358 357 356 356 355 354 354 353 352 350 348 347 346 345 345 343 341 341 340 340 338 337 335 333 330 326 325 326 325 324
327 327 326 327 329 329 328 324 329 330 319 315 324 329 327 328 326 326 324 319 317 319 325 327 321 312 311 321 337 343 342 351 357 356 355 354 353 345 347 352 354 356 355 356 354 352 355 356 354 358 360 360 360 359 359 358 357 357 357 356 356 355 353 352 352 350 348 347 346 345 345 343 342 341 340 339 338 337 334 333 329 325 324 325 324 323
327 327 326 327 327 326 326 326 329 329 322 321 328 329 327 328 327 327 323 317 319 318 312 317 321 312 309 319 335 341 335 337 351 357 357 355 353 349 347 348 351 355 355 355 357 355 354 356 358 359 360 359 360 360 359 359 357 357 357 356 357 355 354 353 351 349 348 347 346 345 345 343 342 341 339 338 337 336 334 331 328 326 325 323 322 323
326 327 328 328 326 325 326 329 328 328 325 326 327 326 327 328 328 327 323 316 316 314 308 311 315 311 310 316 325 330 330 332 340 348 355 358 354 352 351 347 347 353 357 357 358 357 354 356 359 359 360 359 359 361 358 359 357 356 356 356 357 355 353 353 351 349 349 347 346 345 345 344 342 340 339 338 337 336 334 331 328 326 325 323 322 324
327 328 328 328 327 328 327 328 328 327 327 327 327 326 324 325 326 325 322 317 312 310 310 312 315 312 310 313 320 326 328 331 333 343 355 358 354 353 353 349 347 352 358 360 358 360 358 360 360 359 360 360 360 361 359 359 357 356 357 356 356 355 354 353 351 350 348 346 346 345 344 343 342 340 338 338 337 335 335 331 325 324 324 323 324 324
327 326 327 327 327 327 327 326 327 327 327 326 326 322 317 316 318 315 315 314 310 308 311 313 317 315 309 313 323 329 333 332 335 343 350 355 356 354 352 350 351 354 358 359 359 362 362 361 361 361 360 360 361 361 359 359 357 356 357 356 355 354 353 352 351 350 348 347 346 345 344 342 341 340 339 338 337 335 334 329 324 322 323 322 323 323
324 326 327 327 328 328 327 324 323 326 325 326 323 317 310 309 310 310 309 310 309 309 313 316 317 314 311 318 328 331 333 335 340 343 341 348 354 355 354 354 355 355 356 358 359 361 364 363 363 362 361 361 361 360 359 359 356 356 356 356 355 354 353 352 351 349 348 347 346 346 344 342 341 340 339 338 336 335 333 329 324 323 323 322 323 324
317 324 328 326 326 328 327 321 317 318 323 323 318 312 309 308 308 308 308 308 309 310 314 319 317 312 311 322 331 332 334 336 339 340 339 342 345 351 356 356 356 357 360 364 361 360 365 366 363 363 362 362 362 360 358 359 356 356 356 355 354 353 352 351 350 349 347 347 346 345 343 342 340 340 339 337 336 335 332 328 326 323 322 323 325 325
309 313 322 325 325 327 328 325 321 321 323 323 324 320 312 309 309 309 308 308 308 309 311 316 315 310 310 320 332 335 334 337 337 338 342 341 341 347 355 357 354 356 364 366 364 362 364 366 364 363 364 363 362 360 358 359 357 356 356 355 354 353 351 351 349 348 347 346 346 345 343 342 340 340 338 336 335 333 330 327 325 322 323 326 326 324
308 310 323 328 327 328 327 327 328 326 321 322 327 321 312 314 314 309 309 309 308 307 309 310 312 315 320 329 335 334 334 337 336 339 347 349 347 349 353 355 353 356 362 364 363 365 368 365 361 361 364 364 362 360 359 358 357 356 355 354 354 353 351 350 348 348 346 346 345 344 342 341 340 339 337 335 334 331 328 326 323 323 325 325 323 323
308 311 327 328 326 330 327 327 329 324 318 320 320 314 317 325 320 310 308 310 309 307 310 310 310 316 322 329 335 334 334 335 337 344 353 355 355 352 351 353 355 358 363 365 364 367 365 362 358 358 362 363 361 360 359 358 356 355 355 355 354 353 351 350 348 347 346 346 345 343 342 340 339 338 336 334 333 330 326 324 323 323 323 322 323 324
314 311 324 329 324 327 329 327 328 327 324 319 314 317 324 326 323 315 308 308 309 307 309 310 309 311 313 319 331 335 336 339 342 347 351 357 360 359 357 358 361 363 364 366 365 366 363 361 360 360 360 362 362 361 359 358 356 355 354 354 354 352 351 349 349 347 346 345 344 342 342 340 338 338 336 334 332 328 325 324 323 322 322 322 325 324
320 311 318 329 326 325 329 326 322 326 328 323 319 324 324 314 312 313 308 308 309 307 308 309 310 313 312 317 329 335 337 343 345 348 350 356 365 366 364 365 365 364 366 367 367 367 364 363 364 362 361 362 362 360 358 357 356 354 354 354 353 352 351 349 348 347 346 345 344 343 341 339 338 337 334 332 330 326 324 323 323 323 324 324 324 323
324 313 312 325 329 325 328 322 315 318 324 325 324 326 324 315 312 313 311 311 309 308 309 308 309 314 319 330 341 343 346 348 346 349 356 360 366 367 367 366 365 365 367 369 370 369 365 363 365 362 360 362 361 360 358 356 355 354 354 354 352 351 350 349 348 346 345 344 343 342 340 339 338 334 331 330 328 326 324 324 324 324 324 324 323 323
327 318 310 320 329 322 320 320 318 318 320 321 317 316 318 317 317 315 313 312 310 309 309 308 313 321 332 345 352 350 353 353 350 356 364 367 368 366 367 366 365 366 366 368 370 368 365 363 363 362 360 361 360 359 357 356 355 354 353 353 351 350 349 348 347 345 345 344 342 342 340 338 334 331 330 328 326 325 324 324 323 323 323 324 323 324
324 320 312 313 317 315 317 326 327 325 324 322 319 317 316 315 315 311 310 312 311 310 309 309 318 330 345 351 352 351 354 354 356 362 366 370 369 365 366 364 363 363 361 363 367 364 364 363 362 362 362 361 359 358 357 356 355 354 353 351 350 349 347 346 346 345 345 344 342 341 339 335 332 330 329 327 325 325 324 322 323 323 324 324 323 322
326 323 314 310 315 319 324 328 327 325 328 326 324 325 324 319 314 307 307 311 310 311 312 309 321 338 352 353 356 355 354 355 358 363 367 368 367 366 365 362 362 362 359 360 362 361 364 365 364 363 362 360 358 357 356 355 353 351 350 349 348 347 345 345 345 344 343 342 340 339 337 335 332 329 328 326 325 324 323 323 324 324 323 322 321 321
327 322 314 311 317 324 326 328 329 328 328 324 323 327 326 321 320 314 314 315 310 311 310 309 324 344 353 354 358 354 354 357 359 362 366 367 366 365 364 362 361 361 360 360 361 363 365 364 363 362 361 360 358 357 355 351 349 348 346 347 346 345 344 344 343 343 342 340 339 338 336 334 331 328 326 325 324 324 323 323 323 323 322 321 322 323
321 319 314 310 312 315 317 320 321 323 324 322 323 327 325 324 326 321 320 318 311 310 309 308 323 343 353 356 359 353 355 358 357 360 362 365 365 363 362 362 361 361 362 362 363 364 364 362 362 361 358 357 355 354 351 347 346 346 344 344 343 342 343 342 341 341 339 337 336 335 335 332 329 327 325 324 324 323 323 323 323 323 322 322 323 323
320 322 318 311 308 310 310 311 314 317 321 322 323 325 327 326 324 320 316 312 309 312 311 311 323 341 351 355 356 354 357 359 358 361 360 364 363 361 361 361 359 363 363 363 364 362 362 361 360 358 355 353 350 348 347 345 343 343 342 342 341 340 340 340 340 339 336 335 334 333 332 329 327 325 324 324 324 323 323 323 323 323 323 323 323 322
324 325 321 316 312 312 312 315 323 324 319 318 320 323 325 327 327 322 313 309 311 312 312 318 331 336 341 351 355 353 356 358 360 362 361 363 363 360 362 359 358 362 363 362 361 359 359 359 356 354 351 348 346 345 343 341 339 339 340 340 340 339 338 338 337 336 335 334 333 331 329 327 326 325 324 324 324 323 323 323 323 323 324 323 323 322
325 319 321 322 318 320 322 324 329 329 321 319 319 321 324 327 327 321 312 314 318 311 312 330 340 331 334 350 353 352 358 360 362 362 362 364 362 360 361 358 359 362 362 361 359 357 358 357 354 352 348 345 344 343 341 339 337 338 338 338 338 337 337 336 334 334 334 333 331 329 328 327 326 325 324 324 324 323 323 322 323 323 323 322 323 322
324 316 322 323 320 324 329 328 329 329 325 325 324 322 325 326 326 321 316 323 322 312 318 339 343 334 340 349 349 353 356 356 357 359 361 363 362 361 360 359 361 362 362 360 357 356 357 354 352 350 346 345 343 340 339 337 336 337 337 338 337 336 335 334 333 334 333 330 329 328 328 327 326 325 324 324 323 322 323 322 322 323 322 322 322 322
324 319 324 325 320 322 326 328 329 327 323 325 324 324 325 326 326 324 324 327 326 324 333 345 343 343 350 351 355 358 355 352 355 357 359 363 362 361 361 360 361 361 361 360 357 355 354 352 351 348 344 343 340 338 337 336 336 337 336 336 336 335 335 334 332 332 331 329 329 328 327 327 325 325 325 325 324 323 323 323 321 321 321 321 321 321
324 321 326 327 317 317 324 328 326 326 323 321 321 327 328 326 326 326 327 327 326 330 339 343 339 346 353 355 361 362 358 357 359 359 364 365 362 360 360 359 361 360 359 359 357 354 352 351 350 346 342 340 338 336 336 336 336 335 335 335 335 334 334 333 332 331 329 329 329 328 328 327 325 324 325 325 324 323 325 322 319 320 322 321 321 322
327 323 325 325 313 312 321 324 322 324 323 318 318 324 325 324 324 325 327 329 327 329 334 335 332 341 352 355 358 361 358 357 359 360 362 359 356 354 351 353 358 360 359 359 357 353 351 350 349 344 341 339 337 336 336 337 337 335 335 335 334 333 333 332 332 330 329 330 329 328 327 326 325 324 325 325 324 323 325 322 319 320 322 321 321 323
330 324 321 320 312 311 320 323 321 320 317 313 317 325 327 327 328 328 329 333 334 333 332 329 334 346 353 353 355 357 355 355 358 358 358 358 356 350 347 350 355 357 358 358 356 352 350 349 346 342 340 339 338 338 337 337 337 336 335 335 334 333 332 331 331 329 329 330 328 327 327 326 325 325 325 325 324 323 323 322 321 321 322 322 322 323
331 327 323 321 313 310 317 322 320 315 311 314 324 331 331 330 330 330 330 332 336 339 337 334 343 350 350 350 352 353 351 350 352 353 355 358 355 350 350 352 353 356 358 357 354 351 348 347 345 342 341 340 339 338 337 337 337 336 335 334 333 332 331 330 330 329 328 328 327 327 326 326 326 326 325 325 324 323 321 321 321 322 321 322 322 322
330 327 326 323 316 313 317 318 313 311 315 323 331 333 330 332 332 329 332 334 334 337 339 340 345 349 348 349 351 352 352 349 349 352 353 353 353 354 354 352 352 355 358 356 355 351 348 347 345 343 342 341 339 338 337 336 337 337 336 334 332 332 331 331 330 329 328 329 328 326 326 326 326 325 324 324 324 323 322 321 322 322 322 322 322 323
330 328 325 322 319 316 314 312 312 318 324 329 331 333 331 332 332 327 333 340 338 333 337 341 345 350 351 351 352 354 350 348 351 357 354 352 354 353 349 349 350 352 355 357 356 352 349 346 344 343 342 341 339 338 337 337 338 337 336 334 333 332 331 331 330 329 330 329 328 327 327 326 325 325 324 324 324 324 323 322 322 322 322 322 321 323
329 329 324 319 319 318 311 310 316 322 325 328 330 332 333 333 333 330 330 336 340 335 338 344 348 351 353 354 355 354 351 352 357 359 355 351 353 351 346 347 349 352 357 357 354 352 348 345 345 344 342 340 339 338 338 337 337 337 335 334 333 332 332 331 331 330 330 328 327 327 327 326 325 324 324 323 323 322 322 322 322 322 323 323 322 323
328 331 327 320 317 318 313 311 315 316 317 324 328 332 334 331 333 333 329 331 340 340 339 346 353 354 356 356 353 351 351 354 356 357 356 352 350 349 349 349 350 354 357 355 352 350 347 345 346 344 342 341 340 339 339 338 337 337 335 334 333 332 332 332 331 330 330 328 327 327 327 325 325 324 323 323 321 321 322 322 322 322 322 322 323 323
328 330 332 322 316 316 313 310 314 314 317 328 332 333 333 330 333 334 325 327 343 346 341 346 352 353 354 353 351 351 350 352 352 353 354 350 346 349 352 351 351 353 355 355 352 349 347 346 345 343 342 341 340 339 339 338 338 337 336 334 333 333 334 333 332 330 329 327 327 327 326 325 325 324 322 322 321 321 322 322 321 321 321 322 323 323
328 327 326 318 313 314 314 312 313 317 324 334 333 330 331 334 332 327 319 324 344 345 339 345 349 350 351 349 350 351 352 352 352 351 350 348 347 351 351 350 351 353 355 355 352 350 347 345 343 343 342 341 340 340 339 338 339 338 335 334 333 334 334 333 333 331 329 328 327 327 326 324 324 324 323 323 322 321 322 321 320 321 321 322 322 323
324 324 322 317 313 314 314 312 314 321 330 335 332 332 334 332 328 322 320 333 346 343 341 345 348 348 349 347 348 352 353 353 350 348 349 349 349 351 351 352 353 354 354 353 352 350 347 345 344 343 342 341 341 340 339 339 339 337 336 335 334 335 334 334 333 332 330 329 328 326 326 325 324 324 324 323 322 321 321 321 320 321 321 321 322 323
318 320 319 318 315 315 316 314 313 321 335 336 331 334 332 328 327 329 337 345 345 341 343 347 347 349 348 346 350 353 353 354 350 346 348 348 347 350 352 353 355 354 353 352 351 349 348 347 345 343 342 341 340 339 340 339 340 338 336 335 335 335 334 333 334 332 331 331 329 327 326 326 325 325 325 324 323 322 321 321 320 321 321 321 322 323
323 318 314 317 319 317 315 313 313 321 338 337 331 338 339 336 336 343 344 341 341 343 345 345 346 349 348 349 353 353 352 354 351 348 351 352 350 349 350 353 355 353 352 351 349 348 348 347 346 344 343 341 340 340 340 340 340 339 337 335 335 335 335 334 334 332 331 331 329 329 327 326 325 326 325 324 324 323 322 322 321 321 321 321 322 323
329 322 315 320 326 319 313 318 324 331 339 336 333 340 343 344 347 346 340 339 340 342 344 346 349 349 347 350 353 354 355 357 355 353 354 353 352 349 350 353 354 353 352 351 349 348 346 346 347 346 343 342 341 340 340 341 341 339 337 335 334 335 336 336 334 333 332 331 330 329 328 326 325 325 324 324 324 323 322 323 322 321 322 321 322 323
337 337 330 331 337 333 330 336 341 340 340 334 334 340 341 339 342 340 338 343 345 342 344 350 351 347 345 350 353 355 358 358 356 354 352 351 351 350 350 351 352 351 351 350 348 348 346 345 346 345 343 342 341 340 341 341 340 339 337 335 334 335 337 336 334 333 332 331 330 330 329 327 327 326 325 324 324 323 323 323 322 322 322 323 323 324
340 343 340 340 340 339 341 343 340 337 336 334 332 337 338 337 340 339 339 345 347 342 343 347 347 345 347 349 351 355 356 353 351 352 350 349 349 350 349 350 350 350 350 349 348 348 347 345 345 344 343 342 341 341 342 341 340 340 338 336 336 336 337 335 334 333 332 331 331 330 329 328 328 326 325 324 324 323 323 323 323 323 323 323 324 324
333 334 336 339 337 334 336 342 339 334 335 337 337 338 338 336 340 342 342 345 345 343 343 345 343 344 348 348 347 351 353 351 350 350 347 347 350 350 349 350 349 348 349 349 348 348 347 345 344 344 343 343 342 342 342 341 342 340 338 338 338 337 335 333 332 332 332 332 331 331 329 329 328 327 326 325 324 323 322 322 323 323 324 324 324 325
336 334 335 336 334 334 337 342 341 338 340 341 339 341 339 338 340 342 342 343 344 344 343 343 342 343 346 346 345 348 350 350 350 349 345 347 351 352 351 350 349 348 349 348 347 347 347 347 345 344 343 343 343 343 342 342 342 340 339 339 337 335 334 332 330 331 332 332 331 331 330 328 327 327 326 325 324 323 323 322 322 323 323 323 323 325
336 336 336 335 335 336 339 342 342 342 344 343 339 339 340 341 342 345 344 342 342 343 343 342 341 340 342 345 344 344 346 348 349 346 344 349 352 352 351 352 350 349 348 348 347 346 347 347 346 344 343 342 343 342 342 342 342 340 340 339 337 335 334 332 331 331 332 332 332 331 329 328 328 327 327 326 324 323 323 322 322 323 323 323 323 324
334 336 337 335 333 332 339 345 345 344 345 342 338 338 341 341 342 346 345 343 343 345 343 340 340 341 342 343 343 344 347 349 350 347 347 350 352 352 352 352 350 349 349 348 347 347 347 346 346 344 342 342 342 342 341 341 341 340 340 339 338 336 335 334 333 333 333 333 332 331 330 329 329 328 327 326 324 323 322 322 322 323 324 324 326 326
338 344 341 335 332 336 340 345 345 344 343 341 340 341 342 342 342 344 344 344 345 344 341 339 340 343 344 344 344 346 347 348 348 347 348 350 352 352 351 351 350 349 348 347 347 347 346 345 345 344 343 342 342 341 341 341 340 340 340 339 338 338 336 336 335 335 334 333 332 331 331 330 329 328 327 325 324 324 324 323 322 322 322 323 324 325
Wind_Speed
8 8 8 8 9 11 11 12 12 10 11 11 8 7 10 8 5 5 6 9 11 7 3 5 7 6 7 5 16 17 14 14 11 9 10 7 3 1 6 11 11 11 9 10 16 19 19 19 19 16 16 18 17 17 18 18 17 16 16 16 16 15 15 15 14 14 12 12 11 10 10 9 9 9 9 10 11 11 11 10 11 10 10 10 10 10
10 9 10 11 13 14 14 13 14 15 14 12 9 8 9 8 8 6 2 7 9 7 4 5 10 10 8 2 19 19 14 15 12 12 14 14 11 6 10 10 9 9 9 11 15 18 21 18 19 17 15 17 18 18 19 20 19 18 17 18 18 16 15 15 14 13 13 12 11 10 9 9 9 8 9 11 11 10 10 11 11 10 9 9 10 10
10 10 14 13 11 13 15 14 15 16 15 11 8 9 8 7 8 8 6 5 5 6 6 8 10 9 8 2 19 20 15 14 12 12 13 17 19 13 11 9 7 9 11 11 14 18 21 20 20 18 15 16 17 18 20 20 20 19 18 18 18 17 16 15 15 14 13 12 11 10 9 8 9 10 12 13 11 9 10 10 10 10 10 9 9 9
9 10 14 14 11 13 13 13 14 14 12 8 7 8 8 8 9 8 7 7 6 7 8 10 10 6 5 1 12 18 17 13 13 13 13 15 18 16 14 12 10 11 11 11 13 16 18 20 20 18 16 16 16 18 20 20 20 19 18 19 18 18 16 15 16 15 14 12 11 10 8 8 12 13 12 12 10 8 9 10 10 9 10 9 9 10
14 13 14 15 14 14 13 12 13 11 8 8 9 9 9 11 12 10 10 10 9 10 9 8 9 6 4 4 4 15 15 13 13 14 14 12 14 16 14 13 13 13 12 11 12 13 16 19 21 20 18 18 18 19 19 20 20 18 18 19 18 18 17 16 16 15 15 14 13 12 9 9 12 11 8 9 9 8 8 10 10 9 9 9 9 10
15 16 16 18 16 13 13 11 11 11 8 8 10 11 12 13 13 13 14 12 8 8 7 6 8 5 3 6 3 12 13 14 14 15 15 12 12 15 14 13 13 12 12 12 11 12 15 19 20 20 21 20 20 19 20 21 20 19 20 20 19 19 18 17 17 16 16 16 15 13 11 9 10 8 7 8 10 10 10 10 9 9 8 8 9 10
10 15 16 17 16 15 14 11 11 10 9 8 9 12 15 14 14 15 15 11 7 7 8 6 8 6 5 7 3 12 13 15 16 16 14 11 10 13 14 14 12 11 12 12 13 15 16 19 20 20 22 23 21 20 20 21 21 20 21 21 20 20 19 19 19 19 18 17 15 13 11 10 10 9 9 11 13 12 10 9 8 8 8 8 9 10
9 13 15 15 14 13 12 10 8 8 8 8 9 13 15 14 15 15 14 10 7 9 11 9 10 8 5 6 2 7 9 9 14 16 14 12 14 16 16 15 14 14 13 12 15 17 16 19 23 23 24 24 23 22 22 23 23 22 23 22 21 20 20 20 21 22 20 17 15 14 12 11 9 10 13 14 12 10 8 8 8 9 8 8 8 9
10 12 14 14 13 10 9 9 9 11 10 10 13 14 12 13 15 14 11 9 8 9 9 10 11 8 6 6 4 6 6 4 9 14 17 17 16 16 16 16 15 16 16 15 15 16 17 20 24 25 24 24 23 23 23 24 23 23 24 24 22 21 20 21 22 22 19 16 15 14 13 11 10 13 13 12 10 8 7 7 7 7 8 10 10 9
11 11 8 9 10 8 9 10 11 13 11 10 13 14 11 11 12 12 10 8 8 8 9 11 12 8 7 6 5 5 3 2 5 6 12 15 15 15 15 16 15 15 16 16 14 14 17 22 25 24 24 24 23 23 24 23 22 22 23 24 23 21 21 22 22 21 19 17 15 14 13 11 11 13 13 13 12 9 7 6 6 6 7 9 9 8
14 12 7 6 8 8 9 10 10 10 9 10 10 10 10 10 9 9 8 7 7 8 9 13 13 10 8 5 6 4 1 5 6 5 12 15 17 16 15 15 16 14 14 15 14 13 17 22 26 26 25 24 23 23 24 24 23 23 23 24 23 22 22 22 22 21 20 18 15 14 13 12 12 13 15 15 12 9 7 6 6 6 6 7 8 7
15 12 7 7 11 10 10 10 9 10 9 8 7 8 8 8 8 7 7 7 7 7 10 13 14 12 8 5 6 5 4 10 5 10 12 15 19 17 15 15 15 13 13 14 14 13 15 18 21 24 25 24 24 24 25 24 24 23 23 24 24 22 23 24 23 22 20 17 16 14 13 13 12 12 13 13 11 9 8 7 6 6 6 7 8 7
12 12 11 11 12 12 11 9 8 9 9 8 7 7 7 6 6 6 6 6 6 8 11 13 13 9 4 5 9 9 6 6 6 12 8 9 13 14 16 15 11 11 14 15 14 13 14 14 17 21 23 25 25 25 25 24 24 23 23 25 24 23 23 25 24 22 20 18 15 14 13 14 13 12 12 12 10 8 9 8 6 6 6 7 8 8
9 12 16 16 12 12 11 8 7 8 8 9 8 6 6 6 6 6 6 6 7 8 8 7 6 2 3 5 7 6 9 14 15 12 11 11 8 4 12 13 8 10 13 13 13 13 13 14 17 21 23 24 24 25 25 24 23 23 23 24 24 23 23 25 24 22 20 17 14 14 14 14 13 12 11 10 9 9 10 9 8 8 7 6 8 10
9 8 8 10 8 10 14 11 8 9 8 8 8 7 7 6 7 7 6 6 8 8 8 8 5 2 3 2 7 11 13 16 13 12 13 10 8 5 4 9 9 10 10 10 12 12 13 14 17 21 23 24 24 25 24 23 24 23 23 25 25 24 24 24 24 22 21 17 14 14 15 14 13 11 11 10 9 9 9 8 8 8 7 8 11 10
10 9 4 5 2 2 9 12 9 9 9 9 8 7 7 6 6 7 8 10 11 9 9 8 4 3 5 4 11 11 12 15 12 12 12 9 7 6 1 4 8 10 11 11 12 12 11 13 14 16 21 24 25 25 24 23 24 23 23 25 25 25 24 24 24 22 20 18 16 15 15 15 14 11 11 11 9 8 8 8 8 7 8 10 10 9
8 8 6 8 7 6 4 5 9 9 6 6 8 8 9 8 7 7 8 10 10 9 6 5 6 5 2 5 11 12 13 13 11 11 11 8 5 2 1 3 4 8 10 11 11 11 11 13 15 17 20 24 25 25 25 24 23 23 24 25 25 25 25 25 26 24 21 18 17 18 16 15 14 12 12 11 9 8 8 8 8 8 10 10 9 9
7 8 7 6 7 10 8 8 10 11 8 7 7 5 5 6 7 5 6 6 7 8 5 4 7 4 1 2 6 11 12 11 10 10 9 8 6 4 2 1 5 8 9 10 11 12 12 15 19 19 19 23 25 26 26 24 23 23 24 26 26 26 26 26 26 23 21 20 20 20 17 15 14 13 12 12 10 10 9 8 8 9 10 10 10 11
6 7 7 7 6 6 9 8 9 10 11 10 10 8 5 4 5 4 4 5 5 6 6 6 6 3 4 3 8 13 12 10 9 7 7 9 8 6 3 2 5 8 7 7 9 11 12 15 19 20 21 23 24 25 26 25 23 23 23 26 27 26 26 26 25 22 21 21 21 21 18 16 14 11 12 14 14 11 9 9 10 9 10 10 10 11
5 6 7 5 6 5 6 7 7 8 10 10 11 10 7 6 6 5 4 4 5 5 5 6 3 4 7 8 13 14 10 8 8 7 7 9 7 4 3 2 4 5 5 5 7 10 11 14 18 21 22 24 24 24 26 25 24 23 23 26 26 26 26 26 24 23 22 21 21 21 19 16 13 12 15 16 13 10 10 10 10 10 10 10 10 9
5 5 7 5 6 6 6 6 7 8 8 9 8 8 7 6 6 6 7 6 6 5 4 5 1 6 8 9 12 11 8 7 8 7 6 6 5 3 3 4 4 5 5 5 6 9 11 12 17 19 19 22 22 21 22 23 22 23 25 25 26 27 27 24 23 21 20 20 20 19 17 13 13 15 15 14 11 10 11 11 10 10 10 10 9 8
5 5 7 7 5 7 7 8 9 11 9 8 7 8 8 7 7 6 6 6 7 5 5 4 2 7 7 7 8 8 7 8 8 6 4 4 4 4 5 5 6 6 7 7 7 8 9 10 14 15 16 18 17 16 19 19 19 22 23 24 27 28 24 21 20 19 19 19 18 17 17 14 13 14 13 12 11 11 12 11 10 11 11 10 9 8
6 5 7 8 8 8 6 5 7 8 10 9 7 5 6 7 7 7 6 6 6 6 8 4 3 3 5 5 7 8 9 10 6 2 3 5 5 5 5 6 6 6 7 8 8 7 6 9 14 15 15 15 15 16 17 13 11 15 17 20 24 26 23 20 19 18 16 17 17 17 17 14 11 11 12 11 10 11 12 11 11 11 11 11 10 9
6 5 7 8 8 9 10 4 7 4 7 9 8 6 6 7 8 8 8 7 7 7 7 4 3 1 4 2 6 7 8 7 3 2 5 7 6 6 6 5 5 4 5 6 6 6 8 12 15 14 12 12 12 14 13 9 10 13 14 15 19 23 24 24 23 20 17 19 20 18 15 13 10 11 12 11 10 12 12 11 12 11 11 11 10 10
5 5 6 7 6 6 8 8 7 6 5 6 6 8 9 9 10 9 8 8 7 7 10 7 3 4 3 5 6 7 8 6 4 5 6 7 6 6 6 5 4 5 5 5 6 8 9 10 11 11 10 11 12 13 16 15 14 14 13 14 19 23 25 25 24 23 22 23 21 16 14 14 13 12 13 12 11 12 12 12 13 12 11 11 11 12
4 5 6 6 8 6 5 4 2 3 4 5 9 12 12 10 11 10 6 6 6 4 7 5 4 7 6 7 7 7 7 7 6 5 5 6 6 6 6 5 5 5 5 7 8 9 8 8 9 10 10 13 16 17 19 19 18 19 21 21 21 24 24 23 22 23 23 23 20 17 16 16 14 14 14 13 12 12 13 13 13 13 11 11 12 12
6 5 6 8 9 7 6 4 3 7 8 5 8 11 9 8 6 7 7 7 5 4 4 4 9 10 8 7 6 5 4 5 5 5 5 6 6 6 6 5 5 5 6 8 10 9 8 9 10 11 11 14 17 17 19 21 22 22 24 24 23 24 24 23 23 24 23 21 20 19 18 16 15 15 14 13 13 13 13 13 13 12 11 11 11 11
5 7 8 11 12 12 12 8 5 8 11 8 5 3 5 5 3 4 8 8 8 7 3 7 12 12 8 6 4 3 2 2 3 3 4 5 6 6 6 6 6 6 8 9 9 8 9 10 10 11 12 15 18 20 22 25 25 23 24 25 24 24 25 27 27 25 21 20 21 20 18 17 17 16 14 14 15 13 12 13 13 13 12 10 8 8
6 8 10 12 13 12 14 14 11 8 8 8 8 5 6 8 6 5 7 8 10 7 4 11 13 11 6 4 4 3 2 2 2 2 2 4 5 5 6 8 8 8 8 9 9 8 8 9 9 11 14 15 17 21 25 28 26 25 25 24 21 21 23 27 27 23 19 20 21 19 17 17 17 15 14 14 15 13 12 13 14 13 13 8 7 6
6 8 10 14 13 12 14 18 14 8 9 10 9 8 9 9 8 8 7 7 8 6 12 15 12 9 5 3 3 3 3 3 3 4 5 4 4 4 4 7 9 9 8 8 10 9 8 9 10 13 16 17 17 21 26 27 25 23 22 23 21 19 20 23 22 19 19 21 20 18 18 17 17 16 14 14 15 11 10 13 12 12 13 8 7 5
7 8 11 12 12 11 14 17 13 8 11 11 7 8 10 8 9 12 11 8 8 7 13 13 8 7 4 2 2 3 3 3 5 6 8 8 7 6 3 2 6 8 8 8 10 10 10 10 10 12 15 17 20 23 24 22 21 21 22 22 20 19 22 21 18 18 21 20 18 18 19 17 16 16 14 15 15 11 10 13 12 10 13 9 6 5
9 7 10 9 9 10 12 16 13 9 10 13 10 7 7 7 7 10 10 8 8 6 9 9 5 3 2 2 2 2 1 4 7 7 7 9 10 10 8 5 3 6 8 8 10 12 11 10 10 12 13 16 21 23 20 18 19 20 21 19 16 18 20 18 16 19 20 18 18 19 17 15 16 16 15 15 14 11 10 11 11 9 10 10 8 5
7 7 8 7 7 9 11 12 9 6 8 9 7 6 8 7 6 8 8 4 8 9 6 4 2 3 5 5 3 3 3 6 7 5 6 8 5 3 4 8 8 6 8 8 12 13 11 11 13 14 15 16 17 18 18 18 19 19 20 20 18 18 17 15 16 19 18 16 18 18 16 16 16 15 15 14 13 12 10 10 10 9 7 8 9 7
7 7 7 6 6 9 11 5 2 5 7 2 3 5 7 8 7 8 7 4 10 8 2 1 2 6 5 3 2 3 5 6 5 4 6 7 6 4 6 10 9 7 7 8 12 14 13 13 15 16 17 16 15 17 18 19 19 19 20 21 20 18 16 15 16 17 16 16 17 17 15 16 17 15 14 14 13 13 12 10 10 10 8 8 8 7
10 8 7 7 6 7 7 4 4 7 4 1 1 2 1 5 8 9 6 5 5 6 8 5 5 7 5 4 6 6 7 6 5 5 5 5 6 4 7 7 4 4 5 8 11 14 15 17 18 17 16 16 18 20 21 20 19 19 20 21 20 17 16 15 15 15 15 16 16 16 15 16 17 15 14 14 13 13 12 10 10 11 10 10 9 8
11 9 7 6 6 6 5 5 6 2 0 4 6 1 2 4 7 6 5 7 8 2 5 5 6 7 6 8 9 8 7 5 4 5 4 3 1 4 6 3 3 4 6 8 11 15 19 21 20 19 18 18 19 21 21 21 21 20 20 20 18 17 16 16 15 15 15 15 15 15 15 16 16 15 14 14 13 13 13 11 10 10 10 9 9 10
12 9 7 6 6 6 6 5 3 2 0 6 5 2 4 4 5 5 2 2 6 7 7 6 8 8 7 9 9 7 6 3 2 3 3 2 4 6 3 3 3 3 6 9 14 19 21 21 21 20 20 20 20 21 22 22 22 21 21 20 18 17 17 16 15 15 14 15 15 14 15 16 15 15 15 14 14 14 12 11 11 10 8 8 9 9
13 10 8 6 6 6 6 6 5 2 2 5 4 3 5 3 6 6 2 2 6 9 8 6 7 8 8 9 8 5 3 2 2 1 2 4 4 2 3 6 4 2 7 11 18 22 20 19 19 20 20 20 21 23 23 23 23 21 21 20 19 18 17 15 15 15 15 15 15 15 15 15 14 15 14 14 15 14 11 11 12 10 9 10 10 8
15 11 9 8 6 7 6 6 6 4 3 4 6 8 8 3 4 5 3 1 3 5 7 7 8 9 9 9 7 5 2 0 1 1 1 2 3 6 7 7 4 3 9 15 20 22 20 19 19 19 20 21 22 24 25 25 24 22 21 21 20 18 17 16 16 16 16 17 16 16 16 16 16 17 16 14 12 11 11 12 12 11 10 10 9 8
14 11 9 9 8 7 6 7 6 2 2 4 7 8 5 1 3 6 4 1 1 2 5 6 7 9 10 9 7 4 2 1 0 2 4 4 6 9 6 0 2 3 10 16 19 20 20 20 18 19 20 21 23 25 25 24 24 22 21 21 20 19 18 18 18 18 18 18 17 17 16 15 14 15 16 14 12 11 11 11 12 12 11 10 10 10
11 10 9 10 10 8 8 8 5 2 3 3 5 4 1 1 3 6 3 1 2 2 4 6 7 9 9 7 5 3 2 1 1 2 4 5 5 7 7 8 8 8 10 15 19 20 20 18 17 18 20 21 24 25 25 23 21 21 21 21 20 19 19 19 20 20 19 19 18 17 15 13 13 12 12 13 13 12 11 10 11 12 12 12 12 12
8 8 8 8 8 7 7 8 5 3 1 5 4 2 4 3 2 2 1 3 4 4 4 5 7 8 7 6 5 4 4 2 2 2 6 4 2 5 7 8 10 11 12 14 16 16 16 16 18 19 19 21 24 25 24 22 20 20 21 20 20 20 20 20 20 20 20 19 18 17 15 13 13 13 11 11 12 11 10 10 11 12 13 13 13 13
8 7 7 8 7 7 8 7 5 2 3 6 4 3 5 3 1 3 1 4 3 5 5 3 6 7 5 5 6 6 6 5 2 4 7 4 1 2 6 9 11 13 14 14 13 13 13 14 17 19 19 21 22 23 23 22 21 21 21 20 21 21 21 21 21 21 20 18 16 17 17 15 13 12 11 10 10 10 10 11 11 12 12 13 13 12
7 6 6 6 4 5 6 3 1 1 1 3 2 1 2 4 6 3 4 6 1 4 4 2 5 6 4 5 7 7 6 4 2 4 6 4 2 3 6 10 12 13 14 14 13 13 12 13 15 18 19 20 21 22 23 22 21 21 20 21 22 21 21 22 22 20 20 19 17 17 17 16 14 11 9 10 10 9 10 10 11 13 13 14 14 13
3 1 2 1 2 1 2 4 5 4 4 5 2 4 5 5 7 3 5 2 3 3 3 5 7 7 4 6 8 7 3 1 1 3 3 5 5 6 8 11 12 11 12 13 14 13 13 12 14 16 18 19 19 21 22 20 20 20 20 21 22 22 21 22 22 21 19 19 19 18 16 15 14 10 9 11 11 9 10 11 13 14 14 14 14 13
3 3 2 1 2 3 4 5 4 5 2 5 6 1 1 3 6 4 1 4 4 1 3 6 5 5 7 7 7 7 4 2 3 5 6 5 5 6 8 10 12 12 11 12 13 13 13 13 13 14 17 18 19 20 20 19 20 20 20 21 21 21 21 22 22 21 19 18 18 17 15 14 13 11 10 11 11 10 11 12 12 13 13 14 13 13
7 6 4 3 3 3 2 3 5 3 2 4 8 6 4 3 6 7 5 4 1 1 3 6 5 6 10 8 6 8 7 4 4 6 6 6 6 7 8 8 10 13 13 13 13 12 13 15 13 13 15 16 18 18 18 19 20 21 21 21 20 21 23 23 21 19 18 18 18 16 15 15 14 12 11 11 11 11 11 12 12 13 14 14 14 15
5 6 6 4 4 4 2 5 3 4 5 4 5 5 5 5 9 10 5 2 2 2 3 5 4 6 8 8 7 7 8 8 7 6 5 7 7 7 8 8 8 10 13 14 13 13 14 15 15 14 13 13 15 16 16 17 19 20 20 20 20 22 24 24 21 19 17 17 17 16 14 14 14 13 13 13 12 12 13 13 14 14 15 16 16 16
3 7 8 6 6 7 3 10 11 5 3 2 0 2 1 6 9 9 3 4 2 2 3 4 4 3 6 10 8 4 5 7 7 5 5 8 8 7 7 7 7 10 12 12 11 12 12 14 15 15 13 12 13 12 12 14 15 17 19 20 19 21 23 22 20 19 17 17 16 15 15 15 15 14 14 14 15 14 14 15 15 14 14 15 16 17
2 3 4 5 8 8 4 8 9 5 3 3 7 6 5 8 8 5 4 8 4 5 3 2 3 4 7 9 6 4 4 5 5 5 7 8 9 9 9 8 9 11 12 10 9 10 11 12 16 17 15 14 13 11 11 13 15 16 19 19 19 20 21 20 19 18 17 16 15 14 14 15 16 16 16 15 16 15 15 15 16 15 14 12 11 11
4 2 4 5 4 1 4 6 4 0 1 2 1 5 9 6 3 4 6 7 2 6 2 1 3 6 7 5 2 3 6 5 4 7 9 8 10 11 11 10 11 12 11 9 9 10 11 12 14 16 16 15 14 13 13 14 15 17 17 18 18 19 19 20 19 17 16 16 17 17 16 15 16 19 19 16 14 15 16 15 15 15 16 16 15 14
Wind_Direction
248 248 259 260 264 265 267 278 285 282 275 281 307 323 301 298 280 235 173 184 221 245 260 282 299 258 241 194 154 167 183 175 184 172 138 133 121 338 223 204 203 199 197 211 209 208 201 179 178 187 173 167 167 164 164 166 170 168 162 159 157 161 164 161 157 157 160 157 154 149 144 138 127 127 121 104 94 87 81 74 67 59 56 50 44 46
263 253 255 255 265 273 277 289 293 291 297 310 313 304 297 295 300 306 237 212 236 270 304 327 311 291 300 138 150 166 178 170 181 176 155 156 161 206 235 214 203 188 177 202 209 208 209 189 174 183 178 168 166 165 166 168 170 168 164 162 161 164 167 165 161 161 163 160 158 154 149 140 131 136 131 113 101 93 85 75 64 60 61 51 45 46
258 256 262 264 274 284 286 292 290 290 299 310 302 292 291 286 295 300 271 246 264 294 303 298 288 281 299 162 153 164 170 170 184 185 172 165 167 183 200 194 207 194 171 190 202 199 206 199 181 180 181 174 170 167 167 168 169 167 166 167 165 166 168 166 164 162 163 162 159 152 148 142 127 119 115 106 96 94 93 80 62 60 67 59 49 47
250 249 256 257 253 259 267 272 273 278 282 280 275 274 281 287 289 287 274 265 252 249 260 269 273 276 293 235 153 157 164 176 184 187 196 185 170 168 175 182 200 195 176 182 192 191 202 203 193 187 182 178 176 170 168 170 170 168 167 168 168 169 168 167 166 164 160 156 153 145 138 131 120 114 109 97 91 98 99 84 66 59 63 59 56 54
259 261 263 263 253 253 268 281 282 282 280 277 273 268 279 289 289 294 300 300 278 255 257 274 291 301 307 308 155 150 163 183 182 188 206 198 170 161 170 185 190 191 185 179 184 188 197 202 197 190 184 182 182 178 174 173 172 171 170 169 170 170 169 167 166 162 156 152 148 142 135 118 107 112 130 126 118 118 104 89 75 63 58 56 59 58
258 262 266 271 274 274 278 283 285 290 295 287 283 280 282 289 292 289 283 287 289 277 282 288 291 297 276 279 189 145 168 185 180 195 202 190 173 164 169 181 183 185 182 177 186 190 193 197 194 188 184 185 186 184 180 176 174 173 174 173 172 171 170 167 165 160 154 150 146 142 137 126 120 137 155 131 116 112 101 94 84 69 65 64 62 60
257 261 260 259 264 270 270 264 256 266 279 278 285 290 293 298 292 285 288 296 301 299 303 284 273 282 271 273 182 151 180 185 180 197 194 179 183 177 173 178 181 185 180 176 186 192 190 188 188 189 189 189 186 184 181 177 176 174 174 174 171 172 171 166 162 159 153 150 151 150 144 145 159 158 126 99 96 101 99 100 98 83 76 74 68 65
253 256 259 260 260 259 261 267 264 265 268 272 286 287 289 294 290 296 311 310 296 295 292 275 271 281 280 288 243 183 206 182 177 197 191 179 188 188 183 179 176 179 183 184 187 189 184 179 185 191 191 191 186 181 180 178 178 175 173 173 171 171 169 164 164 161 156 155 159 162 160 162 164 136 111 99 95 97 98 104 107 97 89 87 80 75
265 253 248 252 256 258 261 269 281 283 279 282 286 285 288 294 292 297 300 290 291 295 292 288 289 293 281 276 270 240 243 196 185 195 185 179 184 185 187 187 178 173 181 189 188 185 179 177 184 188 187 189 185 177 178 179 178 174 171 172 171 168 165 164 165 162 159 160 161 162 167 164 142 122 114 109 108 109 107 105 109 116 118 110 98 89
265 269 269 259 251 257 261 259 260 262 269 284 286 289 296 293 286 283 278 278 285 279 277 281 279 281 280 277 280 265 247 255 239 187 155 156 165 177 187 192 190 180 179 183 183 182 179 177 180 183 186 188 183 177 177 175 174 173 172 171 169 165 163 164 164 162 160 161 161 163 166 156 136 128 123 119 119 120 121 121 120 133 138 122 106 97
259 277 309 299 273 284 286 279 278 272 285 306 303 299 293 283 275 274 278 280 274 266 268 274 272 273 282 289 288 276 42 314 296 107 115 137 159 181 192 195 193 182 173 173 176 178 175 175 177 179 185 184 179 176 174 172 173 173 173 173 169 164 163 163 163 163 161 161 164 164 160 151 142 136 126 120 125 132 140 136 118 123 134 119 108 100
249 253 258 242 238 257 275 277 280 278 280 290 291 285 282 282 269 254 255 253 255 264 265 269 269 267 280 311 316 319 323 294 269 129 139 161 169 182 191 198 196 178 171 172 174 173 168 173 176 177 181 178 176 177 173 171 174 172 173 174 170 165 164 165 165 164 162 162 164 162 157 150 145 140 130 128 138 149 145 129 112 121 126 118 118 111
242 236 240 240 221 217 236 249 250 251 252 248 252 263 265 274 271 259 255 245 249 257 252 258 260 258 297 317 306 315 339 348 69 106 115 132 149 177 192 199 195 171 171 172 172 172 167 171 173 175 179 174 176 181 174 170 172 172 173 173 169 166 166 165 166 165 161 160 161 159 156 150 146 144 139 139 148 153 140 131 133 137 135 138 136 114
241 229 224 230 223 202 210 236 245 235 231 229 227 241 257 266 269 267 262 256 263 261 259 279 285 307 356 326 326 355 59 59 61 74 63 64 80 164 193 192 177 164 169 168 172 172 166 169 171 174 176 170 174 181 175 169 170 171 172 171 168 166 165 164 165 163 159 159 160 157 154 150 149 149 146 148 155 147 136 140 148 150 155 141 112 92
263 261 222 222 225 200 201 212 251 272 267 254 243 234 245 262 274 277 277 280 290 298 311 328 356 20 289 320 44 46 67 70 65 67 63 55 40 36 153 169 165 167 164 163 172 170 164 167 168 172 172 167 173 178 174 170 169 169 171 171 168 165 164 162 162 161 157 157 161 158 154 151 152 158 156 156 154 137 134 146 148 149 147 114 97 95
264 280 271 245 256 211 208 193 211 263 274 271 268 253 247 254 264 273 277 282 292 304 310 310 316 285 249 130 88 70 69 74 76 74 68 60 36 22 45 183 177 166 159 168 173 163 152 148 155 175 172 165 172 175 172 173 171 168 171 172 168 164 163 161 160 158 155 159 164 159 155 154 160 167 152 145 144 132 134 144 142 139 124 110 109 114
248 262 268 244 207 185 227 210 203 224 248 263 256 253 259 257 258 269 271 271 274 276 270 266 279 274 235 78 67 72 77 73 68 71 72 65 49 29 271 237 183 146 148 166 167 150 142 143 159 184 179 168 171 170 168 174 174 170 171 171 165 160 161 161 159 156 156 161 162 157 157 158 166 168 149 149 157 142 136 140 138 131 122 122 129 124
258 268 294 280 220 186 198 243 241 228 239 259 250 261 282 252 245 268 281 280 276 277 279 259 268 285 108 94 60 70 76 67 58 71 84 81 75 79 84 159 131 132 147 163 163 150 146 157 170 183 181 171 170 168 169 173 172 172 174 170 162 158 158 160 158 156 157 161 159 159 161 162 171 175 163 161 154 136 141 148 136 125 125 129 125 119
274 273 276 260 246 205 181 213 248 236 232 248 261 287 316 279 256 243 247 275 277 273 285 270 264 340 24 63 74 67 66 63 55 59 77 82 81 78 69 108 138 147 157 162 161 151 153 167 172 178 179 170 168 171 172 171 171 174 174 167 163 160 158 157 157 156 157 159 159 160 162 168 177 175 157 144 133 135 156 151 132 128 130 124 115 119
259 276 281 242 207 210 178 187 243 241 220 233 258 273 277 275 284 274 246 262 274 269 277 268 248 50 28 38 63 67 64 58 49 41 54 73 81 94 123 172 164 151 152 154 149 148 159 168 170 176 177 167 169 175 172 171 174 174 170 165 163 159 155 153 156 158 157 156 158 160 166 175 169 148 135 131 131 147 157 140 134 139 135 128 128 133
223 230 264 249 181 211 223 200 236 250 217 208 228 247 253 249 257 279 282 274 273 284 296 284 296 66 37 33 58 69 68 57 53 51 53 74 93 119 158 182 172 153 158 157 139 146 162 167 169 174 169 163 169 171 168 171 173 171 171 168 160 153 151 152 153 156 158 157 158 162 166 162 143 135 132 131 142 153 144 137 144 144 133 130 130 123
232 230 252 256 211 231 241 196 214 250 244 225 215 212 230 243 241 250 256 257 269 280 285 283 74 64 23 24 49 52 55 56 57 61 69 102 128 154 174 178 168 162 166 157 147 158 168 163 159 155 149 154 161 161 165 174 174 170 172 168 156 148 148 150 151 155 159 158 156 159 159 144 129 135 137 138 152 150 139 142 146 139 132 127 125 123
221 243 263 263 252 276 298 158 185 262 285 282 271 227 210 226 242 254 251 250 258 255 254 261 82 38 337 19 48 39 45 46 41 73 141 145 152 167 171 173 171 165 161 157 157 160 149 129 127 128 132 144 153 159 168 175 164 156 160 159 150 145 146 149 150 152 151 148 152 160 160 147 134 141 142 146 155 146 141 146 142 135 134 132 133 132
193 234 262 264 265 291 302 234 186 250 289 281 279 271 251 235 226 241 266 279 278 280 290 322 80 221 265 64 67 62 64 54 34 210 182 157 158 172 169 169 166 146 135 143 143 124 110 115 122 128 132 138 151 161 159 143 122 130 150 153 141 139 145 146 145 148 148 150 157 165 163 156 155 154 147 148 154 146 142 145 140 136 140 143 136 118
187 208 233 262 267 259 263 243 195 192 229 252 258 248 251 264 260 244 245 266 277 292 306 324 81 133 144 119 108 104 112 126 151 188 185 159 158 167 159 156 154 140 135 139 126 109 114 126 128 126 121 118 124 125 122 119 113 111 120 123 120 127 135 138 144 152 154 153 154 157 159 160 162 155 147 150 156 150 144 143 142 142 147 146 125 108
252 210 192 239 262 242 243 261 234 221 216 217 243 238 217 223 260 270 258 261 270 279 302 328 102 124 118 117 119 114 125 141 145 158 164 152 160 162 150 156 160 146 141 139 124 109 114 126 120 109 103 104 106 102 104 111 110 106 110 116 124 131 134 138 148 152 150 147 145 148 154 158 158 152 150 156 156 150 147 145 144 147 147 135 124 124
275 259 217 229 251 263 279 284 276 280 272 239 246 251 226 203 237 279 280 280 295 307 337 59 115 134 128 118 112 100 118 135 136 150 154 146 154 151 142 153 154 136 128 127 122 115 114 115 108 98 92 98 103 100 101 105 104 105 115 127 138 144 144 145 149 151 152 149 145 148 152 154 155 154 156 159 155 151 153 149 147 148 140 134 148 157
282 270 248 242 244 253 269 266 238 257 271 282 291 266 251 259 261 269 277 296 317 309 331 86 107 117 113 110 107 94 105 111 111 143 157 147 145 143 139 140 132 123 123 123 126 130 128 125 118 105 102 105 101 98 103 106 109 117 129 138 146 152 153 150 151 158 160 151 144 149 154 154 154 157 160 158 154 157 159 153 151 147 136 143 178 188
266 265 258 259 251 245 257 257 244 242 252 272 294 296 264 256 243 236 259 282 297 304 55 85 91 97 96 103 110 100 73 53 45 43 83 128 134 132 135 136 133 135 137 134 137 139 131 131 130 116 116 116 104 103 112 117 128 142 143 141 148 156 155 152 154 160 157 147 147 152 155 154 153 158 162 154 154 164 162 153 153 147 141 161 199 199
244 259 259 266 266 253 251 254 254 262 264 255 264 282 278 268 276 285 274 274 305 10 77 86 92 98 79 52 84 78 45 36 23 28 38 50 78 97 122 141 148 154 160 151 145 146 143 141 136 125 123 121 112 117 124 128 140 152 146 143 152 158 156 157 158 155 149 147 150 152 152 153 154 158 161 155 158 170 162 156 163 152 146 176 209 188
213 244 250 260 270 254 244 252 254 253 269 273 266 265 272 279 297 302 298 310 341 43 83 84 86 96 70 358 28 43 30 22 23 33 37 29 24 26 31 126 159 158 167 168 151 147 152 150 138 125 123 126 127 133 138 137 145 152 150 152 158 156 156 163 160 149 146 148 149 149 149 151 154 157 158 157 163 174 167 164 172 155 144 170 210 189
196 236 255 255 267 261 240 239 238 228 250 267 266 270 294 306 306 300 294 311 344 34 80 76 74 107 142 194 138 82 43 36 34 36 47 43 24 8 356 325 251 175 170 169 148 143 154 152 134 122 125 135 141 145 146 142 142 148 150 152 155 154 156 161 155 145 145 146 145 145 148 151 155 156 156 158 165 175 173 166 172 165 151 168 196 196
204 220 250 251 260 275 259 234 225 243 256 259 279 321 330 314 305 303 293 325 29 34 37 35 54 129 154 170 150 117 83 58 45 40 68 79 64 16 312 284 265 207 180 165 145 145 152 141 127 130 142 149 148 147 148 144 141 145 149 149 152 155 155 152 147 143 143 143 143 146 153 153 151 153 157 162 166 171 175 169 169 175 174 176 191 199
256 231 243 257 250 263 273 262 214 256 257 271 350 319 292 292 316 327 320 32 68 77 100 339 88 128 151 164 133 101 80 65 63 90 115 130 143 166 226 246 242 208 186 165 149 147 146 138 134 142 154 156 144 140 144 143 141 144 147 147 150 154 153 148 144 142 143 143 144 151 154 150 152 158 163 169 171 171 178 179 167 172 187 195 201 203
275 254 238 255 257 260 282 291 254 248 251 318 307 212 248 311 313 317 330 2 49 114 145 150 137 143 140 110 102 100 94 83 78 99 119 132 137 171 230 240 227 196 180 164 154 149 144 145 148 151 156 156 144 140 143 145 143 144 144 143 148 154 152 146 144 144 144 144 149 156 156 154 159 164 166 171 172 170 178 183 174 180 194 198 201 205
263 263 247 244 252 255 253 243 245 258 211 242 247 263 10 306 279 297 344 341 327 348 132 129 129 132 111 99 102 99 106 116 98 88 82 62 104 228 238 235 225 210 180 156 149 146 147 152 155 155 155 155 149 144 146 148 148 146 143 146 153 156 152 147 147 148 147 149 157 162 161 160 162 163 166 170 171 176 183 179 179 196 204 201 203 205
242 256 257 242 236 247 251 238 228 70 215 247 250 320 330 319 325 334 1 339 342 18 56 76 98 110 96 89 88 82 93 104 62 76 117 176 217 233 260 317 290 201 160 147 140 140 146 152 153 152 152 154 155 152 150 151 152 150 149 154 157 155 152 151 151 151 152 156 162 164 163 164 164 163 169 174 175 186 192 177 179 202 209 210 227 223
227 236 252 249 225 228 250 254 239 197 233 272 282 256 256 311 349 330 297 89 45 52 72 88 97 101 97 92 90 88 92 65 10 39 157 176 183 181 21 5 356 136 142 132 130 135 143 148 148 149 152 156 157 156 154 154 155 153 154 158 158 154 153 153 152 154 156 158 163 162 159 164 166 162 172 184 181 185 188 175 181 205 210 214 236 244
220 217 240 255 242 230 236 249 255 239 205 237 249 241 240 265 329 303 288 43 50 78 109 123 122 122 124 126 128 127 116 26 351 58 94 142 106 69 47 19 351 168 135 121 128 138 143 143 144 148 153 156 155 155 158 158 157 156 158 161 159 155 155 155 154 156 157 159 162 162 160 168 173 168 175 189 188 188 192 182 184 205 217 222 235 242
218 209 220 235 240 244 240 240 253 250 146 201 233 238 242 333 325 288 265 207 191 103 96 107 134 140 136 137 141 138 133 235 237 63 44 44 71 80 85 102 250 175 135 129 134 138 137 139 145 150 155 157 154 155 159 161 159 160 162 162 159 158 159 159 158 158 157 158 161 162 163 169 174 171 174 180 184 198 206 193 188 205 217 225 233 235
216 208 211 222 229 233 235 246 256 141 129 268 272 270 332 48 286 285 286 135 165 138 95 90 113 124 131 145 151 145 143 239 263 111 82 59 76 106 146 173 163 147 143 139 134 133 138 144 150 154 158 158 157 159 162 162 162 164 163 161 161 164 164 162 161 158 157 159 161 162 162 161 164 169 173 174 181 200 211 198 195 210 219 223 230 237
217 212 211 222 236 236 233 248 252 187 59 338 325 360 17 4 289 326 40 155 170 140 109 101 116 127 142 145 119 111 141 170 317 102 116 114 132 143 149 146 131 125 131 132 131 139 148 151 151 155 158 158 160 164 165 166 166 164 164 163 165 168 166 164 163 160 159 161 159 157 159 159 161 168 172 173 182 195 202 199 204 216 224 228 236 243
211 218 217 215 230 241 238 247 251 217 25 357 339 4 13 10 79 49 325 238 189 139 141 142 134 138 141 120 99 98 123 130 91 83 100 95 331 177 152 143 131 126 130 135 144 152 154 155 157 156 156 160 165 168 171 172 168 165 168 170 169 169 166 165 165 163 163 165 159 155 158 160 162 170 171 171 180 195 202 205 212 221 227 234 241 244
212 222 226 219 225 241 238 239 244 208 268 312 310 75 98 126 114 98 275 280 24 128 156 133 122 137 130 105 106 98 86 95 100 86 99 122 197 221 172 148 137 140 146 150 155 156 155 161 161 154 154 163 168 170 174 174 168 168 173 172 170 171 167 164 166 167 167 167 166 166 164 161 165 174 173 170 180 197 207 212 218 226 233 237 240 244
249 241 230 250 41 62 172 139 140 176 230 281 281 150 159 142 118 145 261 312 67 117 133 108 129 153 127 86 100 106 88 54 107 89 115 158 173 179 166 148 143 156 163 156 154 155 154 159 159 152 154 163 169 171 174 173 168 171 175 172 173 175 168 163 167 172 171 169 171 176 175 170 172 176 173 176 184 197 212 220 223 228 235 236 238 245
212 146 181 181 97 110 117 122 156 176 187 299 309 354 140 138 134 161 290 62 92 168 121 118 147 152 119 109 120 129 140 177 180 177 180 171 154 151 151 147 150 160 164 156 156 159 156 154 157 155 155 164 172 173 173 172 169 170 172 171 170 170 166 165 168 171 171 169 172 178 181 180 181 182 180 185 192 203 218 225 223 227 233 235 237 243
208 194 215 192 155 175 168 195 250 271 57 346 330 349 353 14 74 65 31 38 41 306 94 120 141 130 127 140 142 126 127 158 214 208 177 149 143 149 150 153 159 162 161 158 160 165 159 152 157 164 163 167 173 174 176 178 174 170 169 167 163 162 164 168 171 170 169 169 172 178 185 187 189 192 193 194 198 209 223 226 223 226 230 232 233 236
205 208 230 213 190 224 182 126 104 35 53 46 16 13 348 4 64 72 43 324 296 357 78 109 118 131 142 142 127 124 141 165 193 204 168 141 142 147 150 158 160 154 153 155 161 167 163 154 157 165 164 162 167 173 180 182 178 173 168 161 160 165 169 172 176 177 173 171 173 178 187 193 196 199 201 202 206 216 224 223 221 223 226 231 235 235
158 195 211 210 217 237 183 114 109 97 69 41 322 195 2 21 54 72 33 282 230 128 95 92 82 89 117 114 116 145 168 167 179 181 143 137 140 140 145 154 149 139 140 148 159 167 165 158 157 158 156 156 161 168 177 181 180 178 171 163 165 175 177 177 181 184 183 180 179 181 189 198 201 202 205 205 207 219 231 231 228 228 228 231 231 230
171 230 228 214 219 230 192 139 136 138 149 235 247 208 124 62 55 66 291 267 212 119 92 101 102 96 104 111 132 169 149 145 163 143 122 130 134 129 135 147 145 137 136 143 161 169 165 159 157 153 150 153 160 168 179 184 180 177 175 172 175 182 183 183 186 189 186 183 184 188 195 202 203 204 208 208 205 210 229 242 246 249 249 247 243 235
163 226 267 255 245 10 93 136 154 251 203 207 308 89 99 92 116 170 245 270 147 109 119 229 113 99 98 99 115 137 127 134 149 129 121 121 121 127 142 153 148 140 140 147 160 162 157 154 153 151 148 153 162 171 178 181 178 176 178 182 185 185 184 185 188 188 181 181 189 196 201 208 208 201 201 205 205 207 218 231 242 252 256 256 256 258